Main page
METAR-TAF:

METAR-TAF

Airports :

Jacarepaguá Airport

Rio de Janeiro, Rio de Janeiro, Brazil

latitude: 22-59S, longitude: 043-22W, elevation: 3 m

Current weather observation

The report was made 7 hours and 52 minutes ago, at 00:00 UTC
Calm wind
Temperature 21°C
Humidity 100%
Pressure 1015 hPa
Visibility 10 km or more
Few clouds at a height of 2000 ft
Scattered clouds at a height of 10000 ft

METAR: SBJR 200000Z 00000KT 9999 FEW020 SCT100 21/21 Q1015

Time: 04:52 (07:52 UTC)


TAF: missing

Weather observations and forecasts of more than 4000 airports (METAR and TAF reports).

The available stations are represented by yellow and red dots on the map.

Hover mouse over dot to see the name of the station.

Then click to see weather observations and forecasts.

To change the map : click on the green buttons with a black cross to zoom in, on the green button with a dash to zoom out, or on the green arrows for adjacent maps.


METAR-TAF: